TimeCDT,TemperatureF,Dew PointF,Humidity,Sea Level PressureIn,VisibilityMPH,Wind Direction,Wind SpeedMPH,Gust SpeedMPH,PrecipitationIn,Events,Conditions,WindDirDegrees,DateUTC
12:53 AM,69.1,63.0,81,30.12,10.0,SW,8.1,-,N/A,,Overcast,220,2013-07-14 05:53:00
1:53 AM,70.0,63.0,78,30.12,10.0,South,3.5,-,0.00,,Overcast,180,2013-07-14 06:53:00
2:53 AM,71.1,61.0,70,30.12,10.0,South,3.5,-,N/A,,Overcast,170,2013-07-14 07:53:00
3:53 AM,68.0,62.1,81,30.12,10.0,Calm,Calm,-,0.01,,Overcast,0,2013-07-14 08:53:00
4:53 AM,66.9,63.0,87,30.12,7.0,SSE,5.8,-,0.04,Rain,Light Rain,150,2013-07-14 09:53:00
5:53 AM,66.9,63.0,87,30.13,10.0,Calm,Calm,-,0.01,,Overcast,0,2013-07-14 10:53:00
6:53 AM,68.0,63.0,84,30.14,10.0,South,4.6,-,N/A,,Mostly Cloudy,180,2013-07-14 11:53:00
7:53 AM,68.0,64.9,90,30.15,10.0,South,3.5,-,N/A,,Overcast,180,2013-07-14 12:53:00
8:53 AM,70.0,64.9,84,30.14,10.0,South,5.8,-,N/A,,Partly Cloudy,190,2013-07-14 13:53:00
9:53 AM,73.0,64.9,76,30.17,10.0,SSW,12.7,16.1,N/A,,Clear,210,2013-07-14 14:53:00
10:53 AM,73.0,64.0,73,30.17,10.0,SSW,8.1,-,N/A,,Overcast,210,2013-07-14 15:53:00
11:53 AM,75.9,64.9,69,30.17,10.0,SW,10.4,17.3,N/A,,Scattered Clouds,220,2013-07-14 16:53:00
12:53 PM,75.9,64.9,69,30.18,10.0,SSW,8.1,-,N/A,,Mostly Cloudy,210,2013-07-14 17:53:00
1:53 PM,79.0,66.0,64,30.17,10.0,SW,5.8,-,N/A,,Mostly Cloudy,220,2013-07-14 18:53:00
2:53 PM,81.0,66.9,62,30.17,10.0,West,5.8,-,N/A,,Clear,260,2013-07-14 19:53:00
3:53 PM,82.9,66.0,56,30.16,10.0,Variable,3.5,-,N/A,,Clear,0,2013-07-14 20:53:00
4:53 PM,82.9,66.9,58,30.16,10.0,NNW,3.5,-,N/A,,Clear,330,2013-07-14 21:53:00
5:53 PM,84.0,69.1,61,30.16,10.0,NW,4.6,-,N/A,,Clear,320,2013-07-14 22:53:00
6:53 PM,78.1,69.1,74,30.18,10.0,Calm,Calm,-,N/A,,Partly Cloudy,0,2013-07-14 23:53:00
7:53 PM,77.0,66.0,69,30.18,10.0,North,4.6,-,N/A,,Clear,10,2013-07-15 00:53:00
8:53 PM,70.0,66.0,87,30.19,10.0,ENE,3.5,-,N/A,,Clear,70,2013-07-15 01:53:00
9:53 PM,66.9,64.0,90,30.22,10.0,East,3.5,-,N/A,,Partly Cloudy,80,2013-07-15 02:53:00
10:53 PM,64.9,63.0,93,30.22,10.0,Calm,Calm,-,N/A,,Clear,0,2013-07-15 03:53:00
11:53 PM,63.0,62.1,97,30.23,10.0,Calm,Calm,-,N/A,,Clear,0,2013-07-15 04:53:00